Location: doobydoo
(53.3403°N, 2.6908°W)
Time: 18:42:06
(UTC+00:00)

ISS - Pass Details

Date: 23 November 2021
Orbit: 413 x 422 km, 51.6° (Epoch: 18 January)

Event Time Altitude Azimuth Distance (km) Brightness Sun altitude
Rises 19:01:13 0° 248° (WSW) 2,378 1.2 -25.8°
Reaches altitude 10° 19:03:21 10° 244° (WSW) 1,512 -0.1 -26.1°
Enters shadow 19:04:48 23° 235° (SW) 955 -1.5 -26.3°
